This demonstration page uses our WeatherBlox Daily Observations layout. Learn more.

Left ArrowRight Arrow

38.20091, -84.87328

Hourly Observations for August 17, 2021

Temp ( °F °C ) Dew Point ( °F °C ) Humidity (%) Winds ( mph kmh ) Pressure ( in mb ) Visibility ( mi km ) Precip ( " mm )
12:53 am 00:53 Clear 73 22.8 71 21.7 94 94 Calm 30.01 1016 10 16 0.00 0.00
1:53 am 01:53 Mostly Cloudy 72 22.2 70 21.1 94 94 Calm 30.01 1016 10 16 0.00 0.00
2:53 am 02:53 Mostly Clear 72 22.2 70 21.1 94 94 Calm 29.98 1015 10 16 0.00 0.00
3:53 am 03:53 Mostly Clear 71 21.7 70 21.1 96 96 NNW 3 6 29.98 1015 10 16 0.00 0.00
4:53 am 04:53 Mostly Clear 71 21.7 70 21.1 96 96 Calm 29.98 1015 10 16 0.00 0.00
5:22 am 05:22 Mostly Cloudy 71 21.7 70 21.1 96 96 Calm 30.00 1016 10 16 0.00 0.00
5:31 am 05:31 Partly Cloudy 71 21.7 70 21.1 96 96 Calm 30.00 1016 10 16 0.00 0.00
5:53 am 05:53 Partly Cloudy 71 21.7 70 21.1 96 96 Calm 30.00 1016 10 16 0.00 0.00
6:53 am 06:53 Mostly Cloudy 71 21.7 70 21.1 96 96 Calm 30.01 1016 10 16 0.00 0.00
7:53 am 07:53 Mostly Sunny 73 22.8 71 21.7 94 94 Calm 30.03 1017 10 16 0.00 0.00
8:53 am 08:53 Partly Cloudy 74 23.3 72 22.2 94 94 Calm 30.03 1017 10 16 0.00 0.00
9:53 am 09:53 Sunny 76 24.4 73 22.8 91 91 SE 5 7 30.03 1017 10 16 0.00 0.00
10:53 am 10:53 Sunny 79 26.1 73 22.8 82 82 SE 3 6 30.04 1017 10 16 0.00 0.00
11:53 am 11:53 Mostly Cloudy 80 26.7 74 23.3 82 82 SE 9 15 30.04 1017 10 16 0.00 0.00
12:53 pm 12:53 Mostly Cloudy 83 28.3 73 22.8 72 72 SE 9 15 30.02 1017 10 16 0.00 0.00
1:53 pm 13:53 Mostly Cloudy 83 28.3 73 22.8 72 72 SE 9 15 30.00 1016 10 16 0.00 0.00
2:53 pm 14:53 Mostly Cloudy 82 27.8 71 21.7 69 69 S 6 9 30.00 1016 10 16 0.00 0.00
3:07 pm 15:07 Mostly Cloudy 83 28.3 71 21.7 67 67 VRB 5 7 29.98 1015 10 16 0.00 0.00
3:39 pm 15:39 Partly Cloudy 83 28.3 70 21.1 65 65 ESE 7 11 29.97 1015 10 16 0.00 0.00
3:53 pm 15:53 Mostly Sunny 83 28.3 70 21.1 65 65 SSE 6 9 29.98 1015 10 16 0.00 0.00
4:51 pm 16:51 Mostly Cloudy 81 27 72 22 74 74 S 17 28 29.96 1015 7 11 0.00 0.00
4:53 pm 16:53 Mostly Cloudy with Light Rain 79 26.1 71 21.7 77 77 S 10 17 29.97 1015 4 6 0.06 1.52
4:55 pm 16:55 Mostly Cloudy with Heavy Rain 78 25.6 71 21.7 79 79 SSW 6 9 29.96 1014 2 3 0.02 0.51
5:09 pm 17:09 Cloudy 77 25 72 22.2 85 85 WSW 5 7 29.96 1014 10 16 0.03 0.76
5:53 pm 17:53 Mostly Cloudy 81 27.2 73 22.8 77 77 Calm 29.96 1014 10 16 0.03 0.76
6:53 pm 18:53 Sunny 80 26.7 70 21.1 71 71 E 7 11 29.95 1014 10 16 0.00 0.00
7:53 pm 19:53 Mostly Sunny 79 26.1 70 21.1 74 74 E 5 7 29.95 1014 10 16 0.00 0.00
8:53 pm 20:53 Clear 76 24.4 70 21.1 82 82 ENE 7 11 29.96 1015 10 16 0.00 0.00
9:53 pm 21:53 Clear 75 23.9 70 21.1 84 84 E 6 9 29.97 1015 10 16 0.00 0.00
10:53 pm 22:53 Clear 74 23.3 70 21.1 88 88 Calm 29.98 1015 10 16 0.00 0.00
11:53 pm 23:53 Clear 72 22.2 70 21.1 94 94 Calm 29.99 1016 10 16 0.00 0.00

Powered by AerisWeather